• In Belarus
  • List of Countries
  • For 7 days
  • Water Temperature
  • Weather Map
  • Weather Widgets
  • user-avatar
    Login

    Hourly Weather Bansko

    Today, 19 September, Thursday

    Time Temperature Precipitation Wind Pressure Humidity
    00:00 +18°C° 0 mm 1 mps 723 mmHg 67%
    01:00 +16°C° 0 mm 1 mps 723 mmHg 67%
    02:00 +16°C° 0 mm 1 mps 723 mmHg 70%
    03:00 +16°C° 0 mm 1 mps 723 mmHg 66%
    04:00 +16°C° 0 mm 1 mps 723 mmHg 63%
    05:00 +16°C° 0 mm 1 mps 723 mmHg 59%
    06:00 +18°C° 0 mm 1 mps 723 mmHg 57%
    07:00 +18°C° 0 mm 1 mps 723 mmHg 56%
    08:00 +18°C° 0 mm 1 mps 723 mmHg 57%
    09:00 +20°C° 0 mm 1 mps 724 mmHg 54%
    10:00 +21°C° 0 mm 1 mps 724 mmHg 50%
    11:00 +23°C° 0 mm 1 mps 724 mmHg 47%
    12:00 +24°C° 0 mm 1 mps 724 mmHg 46%
    13:00 +24°C° 0 mm 1 mps 723 mmHg 45%
    14:00 +25°C° 0 mm 1 mps 723 mmHg 44%
    15:00 +25°C° 0 mm 1 mps 723 mmHg 46%
    16:00 +24°C° 0 mm 2 mps 723 mmHg 48%
    17:00 +23°C° 0 mm 2 mps 722 mmHg 50%
    18:00 +21°C° 0.1 mm 2 mps 723 mmHg 56%
    19:00 +19°C° 0.1 mm 2 mps 723 mmHg 62%
    20:00 +17°C° 0.1 mm 2 mps 723 mmHg 69%
    21:00 +16°C° 0.3 mm 2 mps 723 mmHg 76%
    22:00 +15°C° 0.3 mm 2 mps 723 mmHg 83%
    23:00 +14°C° 0.3 mm 1 mps 724 mmHg 89%

    Tomorrow, 20 September, Friday

    Time Temperature Precipitation Wind Pressure Humidity
    00:00 +14°C° 0.5 mm 2 mps 723 mmHg 91%
    01:00 +13°C° 0.5 mm 2 mps 723 mmHg 92%
    02:00 +13°C° 0.5 mm 2 mps 723 mmHg 94%
    03:00 +12°C° 1.1 mm 2 mps 723 mmHg 93%
    04:00 +12°C° 1.1 mm 2 mps 723 mmHg 93%
    05:00 +12°C° 1.1 mm 2 mps 723 mmHg 92%
    06:00 +12°C° 0 mm 2 mps 723 mmHg 88%
    07:00 +12°C° 0 mm 2 mps 724 mmHg 84%
    08:00 +11°C° 0 mm 3 mps 724 mmHg 80%
    09:00 +13°C° 0 mm 3 mps 724 mmHg 69%
    10:00 +14°C° 0 mm 3 mps 724 mmHg 59%
    11:00 +17°C° 0 mm 4 mps 725 mmHg 49%
    12:00 +18°C° 0 mm 4 mps 724 mmHg 42%
    13:00 +19°C° 0 mm 4 mps 724 mmHg 36%
    14:00 +20°C° 0 mm 4 mps 724 mmHg 29%
    15:00 +20°C° 0 mm 4 mps 724 mmHg 29%
    16:00 +20°C° 0 mm 4 mps 724 mmHg 30%
    17:00 +19°C° 0 mm 4 mps 724 mmHg 30%
    18:00 +17°C° 0 mm 3 mps 724 mmHg 35%
    19:00 +14°C° 0 mm 3 mps 724 mmHg 40%
    20:00 +13°C° 0 mm 2 mps 725 mmHg 45%
    21:00 +12°C° 0 mm 2 mps 725 mmHg 46%
    22:00 +11°C° 0 mm 1 mps 725 mmHg 48%
    23:00 +11°C° 0 mm 1 mps 726 mmHg 49%

    Day after tomorrow, 21 September, Saturday

    Time Temperature Precipitation Wind Pressure Humidity
    00:00 +10°C° 0 mm 1 mps 726 mmHg 50%
    01:00 +10°C° 0 mm 1 mps 726 mmHg 51%
    02:00 +9°C° 0 mm 1 mps 726 mmHg 51%
    03:00 +9°C° 0 mm 1 mps 726 mmHg 52%
    04:00 +8°C° 0 mm 0 mps 726 mmHg 52%
    05:00 +7°C° 0 mm 0 mps 726 mmHg 53%
    06:00 +9°C° 0 mm 0 mps 726 mmHg 49%
    07:00 +11°C° 0 mm 0 mps 726 mmHg 45%
    08:00 +12°C° 0 mm 0 mps 727 mmHg 41%
    09:00 +15°C° 0 mm 1 mps 727 mmHg 36%
    10:00 +19°C° 0 mm 1 mps 727 mmHg 32%
    11:00 +21°C° 0 mm 1 mps 727 mmHg 27%
    12:00 +22°C° 0 mm 1 mps 727 mmHg 25%
    13:00 +23°C° 0 mm 1 mps 727 mmHg 23%
    14:00 +24°C° 0 mm 1 mps 726 mmHg 21%
    15:00 +23°C° 0 mm 1 mps 726 mmHg 22%
    16:00 +23°C° 0 mm 1 mps 725 mmHg 23%
    17:00 +23°C° 0 mm 1 mps 725 mmHg 24%
    18:00 +20°C° 0 mm 1 mps 725 mmHg 29%
    19:00 +18°C° 0 mm 1 mps 725 mmHg 35%
    20:00 +14°C° 0 mm 1 mps 725 mmHg 40%
    21:00 +14°C° 0 mm 1 mps 725 mmHg 42%
    22:00 +13°C° 0 mm 1 mps 725 mmHg 44%
    23:00 +13°C° 0 mm 1 mps 725 mmHg 47%

    22 September, Sunday

    Time Temperature Precipitation Wind Pressure Humidity
    00:00 +12°C° 0 mm 1 mps 725 mmHg 49%
    01:00 +12°C° 0 mm 1 mps 725 mmHg 51%
    02:00 +11°C° 0 mm 0 mps 725 mmHg 53%
    03:00 +10°C° 0 mm 0 mps 725 mmHg 54%
    04:00 +10°C° 0 mm 0 mps 725 mmHg 56%
    05:00 +10°C° 0 mm 0 mps 724 mmHg 57%
    06:00 +11°C° 0 mm 0 mps 725 mmHg 53%
    07:00 +13°C° 0 mm 0 mps 725 mmHg 49%
    08:00 +15°C° 0 mm 0 mps 725 mmHg 45%
    09:00 +19°C° 0 mm 1 mps 725 mmHg 41%
    10:00 +21°C° 0 mm 1 mps 725 mmHg 36%
    11:00 +24°C° 0 mm 1 mps 725 mmHg 31%
    12:00 +25°C° 0 mm 1 mps 725 mmHg 29%
    13:00 +26°C° 0 mm 1 mps 724 mmHg 27%
    14:00 +27°C° 0 mm 1 mps 724 mmHg 25%
    15:00 +26°C° 0 mm 1 mps 723 mmHg 26%
    16:00 +26°C° 0 mm 1 mps 723 mmHg 27%
    17:00 +26°C° 0 mm 1 mps 722 mmHg 28%
    18:00 +23°C° 0 mm 1 mps 722 mmHg 35%
    19:00 +20°C° 0 mm 1 mps 722 mmHg 42%
    20:00 +18°C° 0 mm 1 mps 722 mmHg 49%
    21:00 +16°C° 0 mm 1 mps 723 mmHg 52%
    22:00 +16°C° 0 mm 1 mps 723 mmHg 54%
    23:00 +15°C° 0 mm 1 mps 723 mmHg 57%

    23 September, Monday

    Time Temperature Precipitation Wind Pressure Humidity
    00:00 +15°C° 0 mm 1 mps 723 mmHg 58%
    01:00 +15°C° 0 mm 1 mps 723 mmHg 59%
    02:00 +14°C° 0 mm 1 mps 723 mmHg 61%
    03:00 +14°C° 0 mm 1 mps 723 mmHg 61%
    04:00 +14°C° 0 mm 1 mps 723 mmHg 61%
    05:00 +14°C° 0 mm 1 mps 722 mmHg 62%
    06:00 +15°C° 0 mm 1 mps 723 mmHg 58%
    07:00 +18°C° 0 mm 1 mps 723 mmHg 54%
    08:00 +20°C° 0 mm 1 mps 723 mmHg 51%
    09:00 +22°C° 0 mm 1 mps 723 mmHg 46%
    10:00 +24°C° 0 mm 2 mps 723 mmHg 42%
    11:00 +26°C° 0 mm 2 mps 723 mmHg 37%
    12:00 +26°C° 0 mm 3 mps 722 mmHg 37%
    13:00 +27°C° 0 mm 3 mps 722 mmHg 36%
    14:00 +27°C° 0 mm 3 mps 721 mmHg 36%
    15:00 +27°C° 0 mm 3 mps 721 mmHg 40%
    16:00 +26°C° 0 mm 3 mps 720 mmHg 43%
    17:00 +25°C° 0 mm 2 mps 720 mmHg 47%
    18:00 +23°C° 0 mm 2 mps 720 mmHg 53%
    19:00 +22°C° 0 mm 1 mps 720 mmHg 59%
    20:00 +21°C° 0 mm 1 mps 720 mmHg 65%
    21:00 +20°C° 0 mm 1 mps 720 mmHg 68%
    22:00 +19°C° 0 mm 1 mps 719 mmHg 71%
    23:00 +19°C° 0 mm 1 mps 719 mmHg 74%

    24 September, Tuesday

    Time Temperature Precipitation Wind Pressure Humidity
    00:00 +18°C° 0 mm 1 mps 719 mmHg 75%
    01:00 +18°C° 0 mm 1 mps 719 mmHg 77%
    02:00 +18°C° 0 mm 1 mps 719 mmHg 78%
    03:00 +18°C° 0.1 mm 1 mps 718 mmHg 78%
    04:00 +18°C° 0.1 mm 1 mps 718 mmHg 78%
    05:00 +17°C° 0.1 mm 2 mps 717 mmHg 77%
    06:00 +19°C° 0.1 mm 1 mps 717 mmHg 77%
    07:00 +19°C° 0.1 mm 1 mps 717 mmHg 76%
    08:00 +20°C° 0.1 mm 1 mps 717 mmHg 75%
    09:00 +20°C° 0.8 mm 1 mps 717 mmHg 77%
    10:00 +20°C° 0.8 mm 1 mps 717 mmHg 80%
    11:00 +20°C° 0.8 mm 1 mps 717 mmHg 82%
    12:00 +21°C° 0.2 mm 2 mps 717 mmHg 75%
    13:00 +23°C° 0.2 mm 2 mps 716 mmHg 68%
    14:00 +25°C° 0.2 mm 2 mps 716 mmHg 61%
    15:00 +24°C° 0.7 mm 2 mps 716 mmHg 65%
    16:00 +23°C° 0.7 mm 2 mps 715 mmHg 68%
    17:00 +23°C° 0.7 mm 2 mps 715 mmHg 72%
    18:00 +21°C° 0.9 mm 1 mps 715 mmHg 77%
    19:00 +20°C° 0.9 mm 1 mps 715 mmHg 83%
    20:00 +18°C° 0.9 mm 1 mps 716 mmHg 88%
    21:00 +18°C° 0.1 mm 1 mps 716 mmHg 89%
    22:00 +18°C° 0.1 mm 1 mps 716 mmHg 89%
    23:00 +16°C° 0.1 mm 1 mps 716 mmHg 90%
    Show more